{"data":{"norad_id":62801,"intl_designator":"2025-016S","name":"QIANFAN-71","alt_names":[],"object_type":"PAYLOAD","status":"ACTIVE","operator":null,"country":"PRC","launch_date":"2025-01-23","launch_site_code":"TAISC","launch_vehicle":null,"mission":null,"orbit_class":"UNKNOWN","rcs_meters":null,"size_class":null,"mass_kg":null,"dimensions":null,"purposes":[],"wikipedia_slug":null,"has_3d_model":false,"image_url":null,"decayed_at":null,"tle_current":{"epoch":"2026-05-25T04:01:40.734912Z","epoch_age_seconds":56435,"freshness":"FRESH","line1":"1 62801U 25016S   26145.16783258  .00000108  00000+0  14862-3 0  9991","line2":"2 62801  88.9723  86.1213 0013575 232.8059 127.1853 13.51013590 69300","mean_motion":13.5101359,"eccentricity":0.0013575,"inclination_deg":88.9723,"raan_deg":86.1213,"arg_perigee_deg":232.8059,"mean_anomaly_deg":127.1853,"bstar":0.00014862,"rev_number":6930,"period_min":106.58664062735,"perigee_km":1058.4227942115,"apogee_km":1078.6404995878,"semimajor_km":7446.6686468996,"source":"CELESTRAK","updated_at":"2026-05-25T13:38:03.279500Z"}}}